Location: Skalnate Pleso
(49.1889°N, 20.2450°E)
Time: 19:40:51
(UTC+01:00)

Abrixas rocket - Pass Details

Date: 19 November 2019
Orbit: 357 x 366 km, 48.4° (Epoch: 14 December)

Event Time Altitude Azimuth Distance (km) Brightness Sun altitude
Exits shadow 04:54:30 25° 182° (S) 762 3.6 -19.3°
Maximum altitude 04:55:13 29° 155° (SSE) 697 3.6 -19.2°
Drops below altitude 10° 04:57:52 10° 92° (E) 1,341 6.1 -18.8°
Sets 05:00:03 0° 81° (E) 2,192 7.3 -18.4°
